Location: Vale
(35.4830°N, 81.3830°W)
Time: 10:42:51
(UTC-04:00)

SR - All Passes

Search period start: 27 April 2017 00:00
Search period end: 07 May 2017 00:00
Orbit: 573 x 884 km, 66.7° (Epoch: 25 April)

Date Brightness Start Highest point End Pass type
(mag) Time Alt. Az. Time Alt. Az. Time Alt. Az.
27 Apr - 05:02:21 10° S 05:07:10 33° ESE 05:12:17 10° NE visible
27 Apr - 06:44:16 10° WSW 06:49:14 33° NW 06:54:30 10° N daylight
27 Apr - 13:47:30 10° N 13:51:01 16° NE 13:54:24 10° E daylight
27 Apr - 15:28:07 10° NNW 15:33:54 80° WSW 15:39:13 10° SSE daylight
28 Apr - 04:14:56 10° SE 04:18:09 16° ESE 04:21:29 10° ENE visible
28 Apr - 05:54:10 10° SW 05:59:35 63° WNW 06:05:25 10° NNE visible
28 Apr - 07:41:39 10° NW 07:42:57 11° NW 07:44:16 10° NNW daylight
28 Apr - 14:38:46 10° NNW 14:44:24 52° ENE 14:49:38 10° SE daylight
28 Apr - 16:22:07 10° WNW 16:26:00 19° WSW 16:29:41 10° SSW daylight
29 Apr - 05:04:47 10° SSW 05:10:10 66° ESE 05:15:58 10° NNE visible
29 Apr - 06:48:53 10° W 06:52:51 19° NW 06:57:00 10° N daylight
29 Apr - 13:49:48 10° N 13:54:42 27° NE 13:59:19 10° ESE daylight
29 Apr - 15:31:39 10° NW 15:36:57 40° WSW 15:41:51 10° S daylight
30 Apr - 04:16:12 10° S 04:20:59 32° ESE 04:26:03 10° NE visible
30 Apr - 05:57:58 10° WSW 06:03:00 35° NW 06:08:20 10° N visible
30 Apr - 13:01:25 10° N 13:04:45 15° NE 13:07:58 10° E daylight
30 Apr - 14:41:55 10° NNW 14:47:41 83° WSW 14:52:59 10° SSE daylight
01 May - 03:28:54 10° SE 03:31:58 15° ESE 03:35:08 10° ENE visible
01 May - 05:07:54 10° SW 05:13:22 66° WNW 05:19:13 10° NNE visible
01 May - 06:54:57 10° WNW 06:56:41 11° NW 06:58:25 10° NNW daylight
01 May - 13:52:36 10° NNW 13:58:12 49° ENE 14:03:22 10° SE daylight
01 May - 15:35:49 10° WNW 15:39:48 20° WSW 15:43:35 10° SSW daylight
02 May - 04:18:34 10° SSW 04:23:58 63° ESE 04:29:45 10° NNE visible
02 May - 06:02:30 10° W 06:06:36 20° NW 06:10:52 10° N visible
02 May - 13:03:39 10° N 13:08:27 26° NE 13:12:58 10° ESE daylight
02 May - 14:45:25 10° NW 14:50:45 42° WSW 14:55:40 10° S daylight
03 May - 03:30:03 10° SSE 03:34:47 30° ESE 03:39:47 10° NE visible
03 May - 05:11:38 10° WSW 05:16:46 36° NW 05:22:10 10° N visible
03 May - 12:15:21 10° NNE 12:18:29 15° NE 12:21:31 10° ENE daylight
03 May - 13:55:42 10° NNW 14:01:27 87° WSW 14:06:44 10° SSE daylight
04 May - 02:42:53 10° SE 02:45:47 14° ESE 02:48:46 10° ENE visible
04 May - 04:21:38 10° SW 04:27:08 70° WNW 04:33:02 10° NNE visible
04 May - 06:08:21 10° WNW 06:10:24 12° NW 06:12:30 10° NNW daylight
04 May - 13:06:24 10° NNW 13:11:57 47° ENE 13:17:04 10° SE daylight
04 May - 14:49:31 10° WNW 14:53:36 21° WSW 14:57:28 10° SSW daylight
05 May - 03:32:22 10° S 03:37:45 60° ESE 03:43:32 10° NE visible
05 May - 05:16:07 10° W 05:20:21 21° NW 05:24:44 10° N visible
05 May - 12:17:31 10° N 12:22:12 25° NE 12:26:37 10° ESE daylight
05 May - 13:59:11 10° NW 14:04:32 44° WSW 14:09:28 10° S daylight
06 May - 02:43:54 10° SSE 02:48:35 29° ESE 02:53:31 10° NE visible
06 May - 04:25:20 10° WSW 04:30:31 38° NW 04:36:00 10° NNE visible
06 May - 11:29:17 10° NNE 11:32:13 14° NE 11:35:03 10° ENE daylight
06 May - 13:09:30 10° NNW 13:15:15 89° ENE 13:20:29 10° SSE daylight
